Location: Unspecified
(0.0000°N, 0.0000°E)
Time: 22:19:44
(UTC+00:00)

N. Korean satellite - Pass Details

Date: 20 September 2017
Orbit: 460 x 514 km, 97.2° (Epoch: 24 November)

Event Time Altitude Azimuth Distance (km) Brightness Sun altitude
Rises 18:25:00 0° 167° (SSE) 2,612 10.1 -7.9°
Reaches altitude 10° 18:27:05 10° 166° (SSE) 1,731 9.2 -8.5°
Maximum altitude 18:30:50 79° 79° (E) 526 6.6 -9.4°
Drops below altitude 10° 18:34:34 10° 352° (N) 1,733 9.5 -10.3°
Sets 18:36:39 0° 351° (N) 2,617 10.4 -10.8°
